Time,TemperatureF,DewpointF,PressureIn,WindDirection,WindDirectionDegrees,WindSpeedMPH,WindSpeedGustMPH,Humidity,HourlyPrecipIn,Conditions,Clouds,dailyrainin,SoftwareType,DateUTC
2013-07-25 00:04:00,67.3,45.0,29.88,NW,304,0.0,2.0,45,0.00,,,0.00,weatherlink.com 1.10,2013-07-25 07:04:00,
2013-07-25 00:19:00,66.9,46.0,29.88,NW,304,0.0,0.0,47,0.00,,,0.00,weatherlink.com 1.10,2013-07-25 07:19:00,
2013-07-25 00:34:00,66.7,46.0,29.89,NW,304,0.0,1.0,47,0.00,,,0.00,weatherlink.com 1.10,2013-07-25 07:34:00,
2013-07-25 00:49:00,65.5,46.0,29.89,NW,304,0.0,0.0,49,0.00,,,0.00,weatherlink.com 1.10,2013-07-25 07:49:00,
2013-07-25 01:04:00,64.3,46.0,29.89,NW,304,0.0,0.0,51,0.00,,,0.00,weatherlink.com 1.10,2013-07-25 08:04:00,
2013-07-25 01:19:00,64.2,46.0,29.89,NW,304,0.0,0.0,51,0.00,,,0.00,weatherlink.com 1.10,2013-07-25 08:19:00,
2013-07-25 01:34:00,64.5,46.0,29.89,NW,304,0.0,1.0,52,0.00,,,0.00,weatherlink.com 1.10,2013-07-25 08:34:00,
2013-07-25 01:49:00,64.2,45.0,29.89,NW,304,0.0,1.0,50,0.00,,,0.00,weatherlink.com 1.10,2013-07-25 08:49:00,
2013-07-25 02:04:00,64.5,45.0,29.89,NW,304,1.0,3.0,49,0.00,,,0.00,weatherlink.com 1.10,2013-07-25 09:04:00,
2013-07-25 02:19:00,64.5,45.0,29.90,NW,304,0.0,2.0,50,0.00,,,0.00,weatherlink.com 1.10,2013-07-25 09:19:00,
2013-07-25 02:34:00,64.4,45.0,29.90,NW,304,0.0,1.0,50,0.00,,,0.00,weatherlink.com 1.10,2013-07-25 09:34:00,
2013-07-25 02:49:00,62.7,45.0,29.90,NW,304,0.0,1.0,53,0.00,,,0.00,weatherlink.com 1.10,2013-07-25 09:49:00,
2013-07-25 03:04:00,62.2,46.0,29.89,NW,304,0.0,0.0,55,0.00,,,0.00,weatherlink.com 1.10,2013-07-25 10:04:00,
2013-07-25 03:19:00,61.2,47.0,29.89,NW,304,0.0,0.0,59,0.00,,,0.00,weatherlink.com 1.10,2013-07-25 10:19:00,
2013-07-25 03:34:00,60.3,46.0,29.89,NW,304,0.0,0.0,59,0.00,,,0.00,weatherlink.com 1.10,2013-07-25 10:34:00,
2013-07-25 03:50:00,59.4,45.0,29.90,NW,304,1.0,1.0,59,0.00,,,0.00,weatherlink.com 1.10,2013-07-25 10:50:00,
2013-07-25 04:05:00,62.0,45.0,29.89,NW,304,2.0,2.0,55,0.00,,,0.00,weatherlink.com 1.10,2013-07-25 11:05:00,
2013-07-25 04:20:00,63.1,45.0,29.89,NW,304,0.0,2.0,53,0.00,,,0.00,weatherlink.com 1.10,2013-07-25 11:20:00,
2013-07-25 04:35:00,62.9,45.0,29.90,NW,304,0.0,2.0,53,0.00,,,0.00,weatherlink.com 1.10,2013-07-25 11:35:00,
2013-07-25 04:50:00,62.7,45.0,29.89,NW,304,0.0,2.0,53,0.00,,,0.00,weatherlink.com 1.10,2013-07-25 11:50:00,
2013-07-25 05:05:00,62.2,45.0,29.89,NW,304,0.0,1.0,53,0.00,,,0.00,weatherlink.com 1.10,2013-07-25 12:05:00,
2013-07-25 05:20:00,62.3,44.0,29.89,NW,304,1.0,4.0,52,0.00,,,0.00,weatherlink.com 1.10,2013-07-25 12:20:00,
2013-07-25 05:35:00,62.6,44.0,29.90,South,180,2.0,6.0,51,0.00,,,0.00,weatherlink.com 1.10,2013-07-25 12:35:00,
2013-07-25 05:50:00,62.6,44.0,29.90,South,178,3.0,5.0,51,0.00,,,0.00,weatherlink.com 1.10,2013-07-25 12:50:00,
2013-07-25 06:05:00,62.5,44.0,29.90,South,179,5.0,8.0,52,0.00,,,0.00,weatherlink.com 1.10,2013-07-25 13:05:00,
2013-07-25 06:20:00,62.7,45.0,29.91,SSE,164,3.0,10.0,53,0.00,,,0.00,weatherlink.com 1.10,2013-07-25 13:20:00,
2013-07-25 06:35:00,62.8,45.0,29.91,SSE,148,5.0,13.0,52,0.00,,,0.00,weatherlink.com 1.10,2013-07-25 13:35:00,
2013-07-25 06:50:00,62.7,45.0,29.91,South,169,2.0,13.0,53,0.00,,,0.00,weatherlink.com 1.10,2013-07-25 13:50:00,
2013-07-25 07:05:00,62.8,46.0,29.91,SSE,162,4.0,12.0,55,0.00,,,0.00,weatherlink.com 1.10,2013-07-25 14:05:00,
2013-07-25 07:20:00,63.3,47.0,29.92,South,189,2.0,12.0,55,0.00,,,0.00,weatherlink.com 1.10,2013-07-25 14:20:00,
2013-07-25 07:35:00,64.3,47.0,29.92,South,184,5.0,8.0,54,0.00,,,0.00,weatherlink.com 1.10,2013-07-25 14:35:00,
2013-07-25 07:50:00,65.3,47.0,29.92,SSE,148,3.0,8.0,52,0.00,,,0.00,weatherlink.com 1.10,2013-07-25 14:50:00,
2013-07-25 08:05:00,66.4,47.0,29.93,SSE,153,4.0,9.0,50,0.00,,,0.00,weatherlink.com 1.10,2013-07-25 15:05:00,
2013-07-25 08:20:00,67.7,48.0,29.93,SSE,161,7.0,9.0,49,0.00,,,0.00,weatherlink.com 1.10,2013-07-25 15:20:00,
2013-07-25 08:35:00,69.4,48.0,29.93,SSE,164,3.0,8.0,47,0.00,,,0.00,weatherlink.com 1.10,2013-07-25 15:35:00,
2013-07-25 09:05:00,72.3,48.0,29.93,SSE,163,1.0,7.0,43,0.00,,,0.00,weatherlink.com 1.10,2013-07-25 16:05:00,
2013-07-25 09:20:00,74.4,48.0,29.93,SSE,152,5.0,9.0,39,0.00,,,0.00,weatherlink.com 1.10,2013-07-25 16:20:00,
2013-07-25 09:35:00,75.6,47.0,29.93,SE,134,6.0,10.0,37,0.00,,,0.00,weatherlink.com 1.10,2013-07-25 16:35:00,
2013-07-25 09:50:00,77.2,47.0,29.93,SSE,155,2.0,9.0,34,0.00,,,0.00,weatherlink.com 1.10,2013-07-25 16:50:00,
2013-07-25 10:05:00,79.1,45.0,29.93,SSE,168,4.0,10.0,30,0.00,,,0.00,weatherlink.com 1.10,2013-07-25 17:05:00,
2013-07-25 10:20:00,80.5,40.0,29.93,SE,124,6.0,10.0,24,0.00,,,0.00,weatherlink.com 1.10,2013-07-25 17:20:00,
2013-07-25 10:35:00,81.9,39.0,29.92,SSE,160,2.0,7.0,22,0.00,,,0.00,weatherlink.com 1.10,2013-07-25 17:35:00,
2013-07-25 10:50:00,83.7,34.0,29.92,SSE,156,6.0,6.0,17,0.00,,,0.00,weatherlink.com 1.10,2013-07-25 17:50:00,
2013-07-25 11:05:00,85.0,31.0,29.92,SSE,148,1.0,6.0,14,0.00,,,0.00,weatherlink.com 1.10,2013-07-25 18:05:00,
2013-07-25 11:20:00,86.6,26.0,29.92,South,171,3.0,5.0,11,0.00,,,0.00,weatherlink.com 1.10,2013-07-25 18:20:00,
2013-07-25 11:36:00,87.5,25.0,29.92,South,171,1.0,4.0,10,0.00,,,0.00,weatherlink.com 1.10,2013-07-25 18:36:00,
2013-07-25 11:51:00,88.2,20.0,29.91,WSW,239,1.0,7.0,8,0.00,,,0.00,weatherlink.com 1.10,2013-07-25 18:51:00,
2013-07-25 12:06:00,89.7,29.0,29.91,North,360,4.0,7.0,11,0.00,,,0.00,weatherlink.com 1.10,2013-07-25 19:06:00,
2013-07-25 12:21:00,89.9,29.0,29.91,North,355,3.0,6.0,11,0.00,,,0.00,weatherlink.com 1.10,2013-07-25 19:21:00,
2013-07-25 12:36:00,90.7,31.0,29.91,North,351,1.0,4.0,12,0.00,,,0.00,weatherlink.com 1.10,2013-07-25 19:36:00,
2013-07-25 12:51:00,90.2,31.0,29.91,WNW,298,2.0,6.0,12,0.00,,,0.00,weatherlink.com 1.10,2013-07-25 19:51:00,
2013-07-25 13:06:00,92.3,33.0,29.90,NNW,330,5.0,10.0,12,0.00,,,0.00,weatherlink.com 1.10,2013-07-25 20:06:00,
2013-07-25 13:21:00,92.5,35.0,29.90,WNW,298,6.0,11.0,13,0.00,,,0.00,weatherlink.com 1.10,2013-07-25 20:21:00,
2013-07-25 13:36:00,92.7,35.0,29.89,West,271,7.0,10.0,13,0.00,,,0.00,weatherlink.com 1.10,2013-07-25 20:36:00,
2013-07-25 13:51:00,93.5,38.0,29.88,NNW,348,8.0,9.0,14,0.00,,,0.00,weatherlink.com 1.10,2013-07-25 20:51:00,
2013-07-25 14:06:00,93.5,38.0,29.88,NNW,336,6.0,10.0,14,0.00,,,0.00,weatherlink.com 1.10,2013-07-25 21:06:00,
2013-07-25 14:21:00,93.9,38.0,29.88,NNW,344,5.0,11.0,14,0.00,,,0.00,weatherlink.com 1.10,2013-07-25 21:21:00,
2013-07-25 14:36:00,93.7,38.0,29.88,NW,307,5.0,9.0,14,0.00,,,0.00,weatherlink.com 1.10,2013-07-25 21:36:00,
2013-07-25 14:51:00,93.5,38.0,29.87,WNW,294,9.0,12.0,14,0.00,,,0.00,weatherlink.com 1.10,2013-07-25 21:51:00,
2013-07-25 15:06:00,95.1,37.0,29.87,North,355,7.0,9.0,13,0.00,,,0.00,weatherlink.com 1.10,2013-07-25 22:06:00,
2013-07-25 15:21:00,94.9,37.0,29.87,NNW,346,8.0,15.0,13,0.00,,,0.00,weatherlink.com 1.10,2013-07-25 22:21:00,
2013-07-25 15:51:00,94.6,38.0,29.87,NNW,327,5.0,10.0,14,0.00,,,0.00,weatherlink.com 1.10,2013-07-25 22:51:00,
2013-07-25 16:51:00,94.1,40.0,29.86,North,355,7.0,12.0,15,0.00,,,0.00,weatherlink.com 1.10,2013-07-25 23:51:00,
2013-07-25 17:06:00,93.7,40.0,29.86,NW,306,7.0,15.0,15,0.00,,,0.00,weatherlink.com 1.10,2013-07-26 00:06:00,
2013-07-25 17:21:00,94.2,40.0,29.85,North,10,7.0,16.0,15,0.00,,,0.00,weatherlink.com 1.10,2013-07-26 00:21:00,
2013-07-25 17:36:00,93.9,41.0,29.85,NNW,334,12.0,15.0,16,0.00,,,0.00,weatherlink.com 1.10,2013-07-26 00:36:00,
2013-07-25 17:51:00,93.4,41.0,29.85,North,350,5.0,13.0,16,0.00,,,0.00,weatherlink.com 1.10,2013-07-26 00:51:00,
2013-07-25 18:06:00,92.5,40.0,29.85,NNW,331,6.0,13.0,16,0.00,,,0.00,weatherlink.com 1.10,2013-07-26 01:06:00,
2013-07-25 18:21:00,92.1,41.0,29.85,NW,325,9.0,13.0,17,0.00,,,0.00,weatherlink.com 1.10,2013-07-26 01:21:00,
2013-07-25 18:36:00,91.6,34.0,29.85,North,9,10.0,13.0,13,0.00,,,0.00,weatherlink.com 1.10,2013-07-26 01:36:00,
2013-07-25 18:51:00,91.3,34.0,29.85,NW,309,10.0,16.0,13,0.00,,,0.00,weatherlink.com 1.10,2013-07-26 01:51:00,
2013-07-25 19:06:00,90.8,34.0,29.86,North,360,6.0,15.0,13,0.00,,,0.00,weatherlink.com 1.10,2013-07-26 02:06:00,
2013-07-25 19:21:00,90.2,31.0,29.86,NW,324,11.0,11.0,12,0.00,,,0.00,weatherlink.com 1.10,2013-07-26 02:21:00,
2013-07-25 19:36:00,89.4,32.0,29.86,North,355,7.0,12.0,13,0.00,,,0.00,weatherlink.com 1.10,2013-07-26 02:36:00,
2013-07-25 19:51:00,88.2,31.0,29.87,North,9,3.0,11.0,13,0.00,,,0.00,weatherlink.com 1.10,2013-07-26 02:51:00,
2013-07-25 20:06:00,87.2,34.0,29.87,NNE,17,4.0,10.0,15,0.00,,,0.00,weatherlink.com 1.10,2013-07-26 03:06:00,
2013-07-25 20:21:00,85.9,35.0,29.88,North,355,6.0,11.0,16,0.00,,,0.00,weatherlink.com 1.10,2013-07-26 03:21:00,
2013-07-25 20:51:00,83.1,35.0,29.89,North,350,3.0,12.0,18,0.00,,,0.00,weatherlink.com 1.10,2013-07-26 03:51:00,
2013-07-25 21:06:00,81.9,34.0,29.90,NW,324,5.0,7.0,18,0.00,,,0.00,weatherlink.com 1.10,2013-07-26 04:06:00,
2013-07-25 21:21:00,80.9,35.0,29.91,NNW,339,4.0,8.0,19,0.00,,,0.00,weatherlink.com 1.10,2013-07-26 04:21:00,
2013-07-25 21:36:00,79.8,35.0,29.91,NNW,331,2.0,8.0,20,0.00,,,0.00,weatherlink.com 1.10,2013-07-26 04:36:00,
2013-07-25 21:51:00,78.7,32.0,29.92,NNW,337,5.0,6.0,18,0.00,,,0.00,weatherlink.com 1.10,2013-07-26 04:51:00,
2013-07-25 22:06:00,77.9,32.0,29.92,NNW,327,2.0,6.0,19,0.00,,,0.00,weatherlink.com 1.10,2013-07-26 05:06:00,
2013-07-25 22:21:00,76.8,30.0,29.93,NNW,327,2.0,5.0,18,0.00,,,0.00,weatherlink.com 1.10,2013-07-26 05:21:00,
2013-07-25 22:36:00,75.3,32.0,29.94,NNW,327,1.0,2.0,20,0.00,,,0.00,weatherlink.com 1.10,2013-07-26 05:36:00,
2013-07-25 22:51:00,75.0,31.0,29.94,NNW,327,0.0,3.0,20,0.00,,,0.00,weatherlink.com 1.10,2013-07-26 05:51:00,
2013-07-25 23:06:00,74.0,32.0,29.93,NNW,327,2.0,5.0,21,0.00,,,0.00,weatherlink.com 1.10,2013-07-26 06:06:00,
2013-07-25 23:21:00,74.0,30.0,29.93,NW,323,3.0,5.0,20,0.00,,,0.00,weatherlink.com 1.10,2013-07-26 06:21:00,
2013-07-25 23:51:00,72.7,30.0,29.93,NW,323,0.0,2.0,21,0.00,,,0.00,weatherlink.com 1.10,2013-07-26 06:51:00,